Regional Weather Roundup
Issued by NWS Glasgow, MT

Home | Current Version | Previous Version | Text Only | Print | Product List | Glossary On
Versions: 1 2 3 4 5 6 7 8 9 10 11 12 13 14 15 16 17 18 19 20 21 22 23 24 25 26 27 28 29 30 31 32 33 34 35 36 37 38 39 40 41 42 43 44 45 46 47 48 49 50
000
ASUS45 KGGW 030915
RWRGGW
HOURLY REGIONAL WEATHER ROUNDUP FOR NORTHEAST MONTANA
NATIONAL WEATHER SERVICE GLASGOW MONTANA
300 AM MDT MON AUG 03 2015

NOTE: "FAIR" INDICATES FEW OR NO CLOUDS BELOW 12,000 FEET WITH NO
SIGNIFICANT WEATHER AND/OR OBSTRUCTIONS TO VISISBILITY.

NORTHEAST MONTANA


CITY           SKY/WX    TMP DP  RH WIND       PRES   REMARKS
GLASGOW        CLEAR     58  47  66 SE6       30.02R
PLENTYWOOD       N/A     57  48  72 N2          N/A
WOLF POINT     CLEAR     55  47  74 E3        30.03S
JORDAN           N/A     57  46  66 CALM      30.02S
WINNETT          N/A     55  47  74 S1          N/A
SIDNEY         CLEAR     55  46  71 CALM      30.02F
GLENDIVE         N/A    N/A N/A N/A MISG        N/A
MALTA            N/A     61  52  72 E3          N/A
SCOBEY           N/A     53  46  77 CALM      30.03F

FORT PECK REPORTS


CITY           SKY/WX    TMP DP  RH WIND       PRES   REMARKS
FORT PECK        N/A     66  49  54 E16         N/A
THE PINES        N/A     64  48  56 E3          N/A

SOUTHEAST MONTANA


CITY           SKY/WX    TMP DP  RH WIND       PRES   REMARKS
BILLINGS       CLEAR     65  44  46 N8        30.00S
MILES CITY     CLEAR     63  48  58 NE8       30.00F
BAKER          CLEAR     56  46  69 E3        30.05F
LIVINGSTON     PTCLDY    65  40  39 SE9       30.03F

CENTRAL MONTANA


CITY           SKY/WX    TMP DP  RH WIND       PRES   REMARKS
HAVRE          CLEAR     62  52  69 NE13      29.94F
LEWISTOWN      CLEAR     65  46  50 E13       30.02F
GREAT FALLS    CLEAR     68  44  42 S9        29.94F
CUT BANK       CLEAR     59  48  67 E6        29.97F
HELENA         PTCLDY    67  41  38 SW5       29.96F
BUTTE          PTCLDY    55  35  47 CALM      30.07S
BOZEMAN        PTCLDY    58  44  60 CALM      30.00S

WESTERN MONTANA


CITY           SKY/WX    TMP DP  RH WIND       PRES   REMARKS
MISSOULA       MOCLDY    60  36  40 CALM      29.91F
KALISPELL      NOT AVBL

NORTH DAKOTA


CITY           SKY/WX    TMP DP  RH WIND       PRES   REMARKS
WILLISTON      CLEAR     56  49  77 NE5       30.03S
DICKINSON      CLEAR     50  45  83 W5        30.03R
MINOT          CLEAR     57  48  72 W8        29.99R
BISMARCK       CLEAR     53  50  89 CALM      30.00R

SOUTHERN SASKATCHEWAN


CITY           SKY/WX    TMP DP  RH WIND       PRES   REMARKS
REGINA         CLEAR     50  48  93 CALM      30.02S
ESTEVAN        CLEAR     46  46 100 W6        30.02R
SWIFT CURRENT  CLEAR     54  52  94 S9        30.02F



USA.gov is the U.S. government's official web portal to all federal, state and local government web resources and services.